Content
SEND FEEDBACK

Daily
Averages
Monthly
Summary
United States of America

ORANGE LAKE, NEW YORK


Home > North America > United States > New York
Elevation: 581 feet     Latitude: 41 47N     Longitude: 074 58W

WEATHER
 
SELECT A DAY
Number of Records: 148,168;   Date Range: 11/1/95 - 8/12/14
 
SHARE

PRINT THIS DATA

[ ← Previous Day ]
WEATHER ALMANAC - MAY 6, 2013
[ Next Day → ]
[ °C ]   °F
Weather ElementAverageHighLow
Temperature56.6 °F68 °F (2:51 pm)46 °F (1:51 am)
Dewpoint46.2 °F51.1 °F (3:28 pm)42.1 °F (1:51 am)
Humidity69.4 %86 % (1:51 am)52 % (12:51 pm)
Barometer30.22 in30.30 in (9:49 am)30.16 in (5:51 pm)
Wind Speed4 mph10.4 mph (9:49 am)
Weather ElementAverage
Visibility9.4 mi
Wind DirectionNNE (35 °)

Weather ElementTotal
Precipitation---
Heating Degree Days8 (Base 65)
Growing Degree Days7 (Base 50)
Averaged from 30 records on May 6, 2013
WEATHER CONDITIONS BREAKOUT
WIND DIRECTION BREAKOUT
WEATHER BY HOUR - MAY 6, 2013
[ °C ]   °F
Local TimeTemperatureDewpointHumidityBarometerVisibilityWind DirectionWind SpeedGust SpeedPrecipitationEventsConditions
1:51 AM46.0 °F42.1 °F86 %30.23 in9.0 miCalmClear
2:15 AM46.9 °F42.1 °F83 %30.25 in9.0 miCalmMostly Cloudy
2:51 AM48.9 °F43.0 °F80 %30.22 in10.0 miENE (70°)5.8 mphOvercast
3:05 AM48.0 °F43.0 °F83 %30.24 in9.0 miVariable4.6 mphOvercast
3:51 AM48.9 °F43.0 °F80 %30.22 in9.0 miVariable3.5 mphOvercast
4:51 AM48.9 °F43.0 °F80 %30.23 in10.0 miEast (90°)4.6 mphOvercast
5:51 AM48.9 °F43.0 °F80 %30.23 in9.0 miNE (50°)4.6 mphOvercast
6:39 AM48.9 °F43.0 °F80 %30.27 in7.0 miSSE (150°)4.6 mphOvercast
6:51 AM50.0 °F44.1 °F80 %30.25 in7.0 miENE (70°)5.8 mphOvercast
7:51 AM50.0 °F44.1 °F80 %30.27 in8.0 miVariable6.9 mphOvercast
8:51 AM52.0 °F44.1 °F74 %30.27 in8.0 miENE (60°)6.9 mphOvercast
9:49 AM53.6 °F44.6 °F72 %30.30 in10.0 miENE (60°)10.4 mphOvercast
9:51 AM53.1 °F44.1 °F71 %30.28 in10.0 miENE (70°)8.1 mphOvercast
10:51 AM57.9 °F45.0 °F62 %30.27 in10.0 miEast (90°)8.1 mphOvercast
11:51 AM61.0 °F46.0 °F58 %30.25 in9.0 miVariable4.6 mphOvercast
12:51 PM64.9 °F46.9 °F52 %30.22 in10.0 miCalmMostly Cloudy
1:51 PM64.9 °F46.9 °F52 %30.21 in9.0 miVariable3.5 mphOvercast
2:51 PM68.0 °F50.0 °F52 %30.19 in10.0 miVariable3.5 mphOvercast
3:28 PM68.0 °F51.1 °F55 %30.20 in10.0 miSouth (180°)6.9 mphScattered Clouds
3:51 PM68.0 °F51.1 °F55 %30.17 in10.0 miNorthPartly Cloudy
4:31 PM66.0 °F51.1 °F59 %30.19 in10.0 miNorthMostly Cloudy
4:51 PM64.0 °F50.0 °F60 %30.17 in10.0 miSSE (160°)9.2 mphOvercast
5:42 PM64.0 °F48.9 °F58 %30.19 in10.0 miVariable4.6 mphScattered Clouds
5:51 PM64.0 °F48.9 °F58 %30.16 in10.0 miVariable3.5 mphPartly Cloudy
6:51 PM61.0 °F48.0 °F62 %30.16 in10.0 miVariable3.5 mphClear
7:51 PM59.0 °F48.0 °F67 %30.17 in10.0 miCalmClear
8:51 PM57.0 °F48.0 °F72 %30.18 in10.0 miCalmClear
9:51 PM55.0 °F48.9 °F80 %30.19 in10.0 miCalmClear
10:51 PM55.0 °F48.0 °F77 %30.18 in10.0 miCalmClear
11:51 PM55.0 °F46.9 °F74 %30.17 in10.0 miCalmClear
Hourly data recorded from KNYC, located miles away from Orange Lake, New York







STORIES FROM OUR PARTNERS